Погода в Хазаре

Россия / Республика Дагестан     41°59′37″N   48°20′14″E
темп.,
°C
ветер,
м/с
пор.,
м/с
влажн.,
%
обл.,
%
осадки,
мм/ч
давл.,
гПа
погр.,
м
25 июня, сб
сб2500:00+20ссз2275100 0.0 100898
03:00+18сз118755 0.0 100931
06:00+20с1175100 0.0 1009224
09:00+24ссв43625 0.0 1009783
12:00+25ссв65627 0.0 1008818
15:00+24ссв556287 0.0 1008717
18:00+23с4467100 0.0 1008462
21:00+21сз3370100 0.0 100966
26 июня, вс
вс2600:00+21сз1173100 0.0 100814
03:00+21сз1176100 0.0 100825
06:00+23сз1166100 0.0 1008191
09:00+26с445360 0.0 1007784
12:00+25с7754100 0.0 1005574
15:00+27с774796 0.0 1005938
18:00+26ссз5847100 0.0 1005547
21:00+24зсз3357100 0.1 100634
27 июня, пн
пн2700:00+23з337126 0.4 100622
03:00+22ссз33700 0.4 100629
06:00+23зсз34640 0.0 1007128
09:00+29с68440 0.0 1007918
12:00+30с1112430 0.0 10071211
15:00+30ссз1114450 0.0 10061079
18:00+28ссз914480 0.0 1006928
21:00+24сз57650 0.0 1006112
28 июня, вт
вт2800:00+23сз59627 0.0 1006164
03:00+24ссз816490 0.0 1006489
06:00+25ссз712430 0.0 1006542
09:00+28ссз1012370 0.0 10061035
12:00+28с1012420 0.0 10071042
15:00+27ссз1013520 0.0 1007785
18:00+24ссз812600 0.0 1009740
21:00+22сз57650 0.0 1010171
29 июня, ср
ср2900:00+22зсз33661 0.0 101029
03:00+21зсз3360100 0.0 101031
06:00+25сз36410 0.0 1011439
09:00+27с67340 0.0 10111114
12:00+28ссв77320 0.0 10111170
15:00+27ссв55440 0.0 1011903
18:00+24с55620 0.0 1012510
21:00+20ссз468911 0.0 1014190